Torna al catalogo

COSMOS 2251 DEB

AttivoLEO
NORAD 47119·DEBRIS·🇷🇺 Russia

Lanciato Jun 16, 1993 da Plesetsk Cosmodrome

Loading…

Prossimi Passaggi (prossime 24 ore)

TLE

ObsoletoSource: Space-Track

Epoca: Sep 3, 2026, 14:41 UTC

1 47119U 93036BYM 26246.61186398  .00011322  00000-0  19990-2 0  9994
2 47119  74.0857   7.0558 0087113 330.4387  44.8933 14.65033807640747

Traccia COSMOS 2251 DEB in tempo reale con AllMySat

Download on the App Store